Location: Godiavel Galaoual
(15.2485°N, 12.6604°W)
Time: 12:07:15
(UTC+00:00)

LightSail 2 - Pass Details

Date: 13 June 2020
Orbit: 692 x 720 km, 24.0° (Epoch: 14 July)

Event Time Altitude Azimuth Distance (km) Brightness Sun altitude
Rises 21:44:55 0° 287° (WNW) 3,048 9.4 -30.4°
Reaches altitude 10° 21:47:36 10° 299° (WNW) 2,130 8.5 -30.9°
Enters shadow 21:51:53 29° 357° (N) 1,242 6.7 -31.7°
